Volver al catálogo

MSG 2 DEB

BAFFLE COVER

LostGEO
NORAD 29676·DEBRIS·🇪🇺 EU

Lanzado Dec 21, 2005 desde Guiana Space Centre

Loading…

TLE

EnvejeciendoSource: Space-Track

Época: Aug 6, 2026, 18:08 UTC

1 29676U 05049F   26218.75588501 -.00000017  00000-0  00000-0 0  9995
2 29676  12.7062  27.4722 0005825  38.8071 308.5763  1.02258072 74540

Sigue MSG 2 DEB en tiempo real con AllMySat

Download on the App Store